Other Public Products
Issued by NWS Grand Forks, ND

Home | Current Version | Previous Version | Graphics & Text | Print | Product List | Glossary On
Versions: 1 2 3 4 5 6 7 8 9 10 11 12 13 14 15 16 17 18 19 20 21 22 23 24 25 26 27 28 29 30 31 32 33 34 35 36 37 38 39 40 41 42 43 44 45 46 47 48 49 50
000
FPUS83 KFGF 232331
OPUFGF
PRAIRIE TO PINES WEATHER ROUNDUP
NATIONAL WEATHER SERVICE EASTERN NORTH DAKOTA/GRAND FORKS ND
600 PM CDT TUE AUG 23 2016

 **SATELLITE DATA USED TO AUGMENT SKY COVER AT AUTOMATED STATIONS**
 *****  WEATHER ACROSS EASTERN NORTH DAKOTA  *****

CITY           SKY/WX    TMP DP  RH WIND       PRES   REMARKS
GRAND FORKS    FAIR      84  69  60 SW10      29.65S
GRAND FORKS AF FAIR      84  69  60 SW12      29.66F
GRAND CITY NWS   N/A     84 N/A N/A SW12        N/A
BUXTON           N/A     86  73  63 SW8         N/A  HX  93
DEVILS LAKE    FAIR      78  66  66 NW12      29.72S
FARGO          FAIR      88  64  44 S28G35    29.69S
WAHPETON ARPT  FAIR      82  59  44 S20G29    29.75F
$$

 *****  WEATHER ACROSS CENTRAL AND WESTERN NORTH DAKOTA  *****

CITY           SKY/WX    TMP DP  RH WIND       PRES   REMARKS
JAMESTOWN      CLOUDY    74  64  71 N7        29.75R
BISMARCK       SUNNY     81  37  20 NW17G24   29.82S
MINOT          FAIR      80  40  23 W13G26    29.79S
MINOT AFB      FAIR      80  41  25 NW10G20   29.77S
GARRISON         N/A     79  41  25 NW17G24   29.82R
WILLISTON      MOSUNNY   77  40  26 W20G36    29.85R
DICKINSON      SUNNY     77  30  17 NW18G26   29.89R
HETTINGER      MOSUNNY   80  35  19 NW20G25   29.93R
$$

 *****  OTHER OBSERVATIONS NORTHEAST NORTH DAKOTA  *****

CITY           SKY/WX    TMP DP  RH WIND       PRES   REMARKS
WALHALLA       FAIR      77  73  88 NW14      29.65R
LANGDON        DRIZZLE   72  70  94 NW7       29.71S
CAVALIER       FAIR      81  70  69 W12G18    29.63S
GRAFTON        FAIR      82  72  69 SW12G21   29.66S
CANDO          FAIR      75  57  53 NW12      29.75S
FORT TOTTEN      N/A     78  69  73 NW7       29.95S
ROLLA          FAIR      72  55  56 NW10G18   29.77S
RUGBY          NOT AVBL
 ***** THE ABOVE OBSERVATIONS ARE NON NWS ARE NOT QUALITY
        CONTROLLED AND MAY MIS-REPORT RAIN FOR SNOW...
$$

 *****  OTHER OBSERVATIONS SOUTHEAST NORTH DAKOTA *****

CITY           SKY/WX    TMP DP  RH WIND       PRES   REMARKS
COOPERSTOWN    NOT AVBL
VALLEY CITY    CLOUDY    77  73  88 NW16G22   29.75R
OAKES            N/A    N/A N/A N/A MISG        N/A
GWINNER        FAIR      81  66  61 S12       29.74R
SHEYENNE NWR     N/A     85  63  47 S18       29.95S
BUFFALO          N/A     82  64  53 SW6         N/A
WYNDMERE         N/A     84  64  51 S12         N/A
 ***** THE ABOVE OBSERVATIONS ARE NON NWS ARE NOT QUALITY
       CONTROLLED AND MAY MIS-REPORT RAIN FOR SNOW...
$$

  *****  WEATHER ACROSS NORTHERN MINNESOTA  *****

CITY           SKY/WX    TMP DP  RH WIND       PRES   REMARKS
FLAG ISLAND    PTSUNNY   75  70  83 CALM      29.69R HAZE
WARROAD        FAIR      79  72  78 NE3       29.69F
ROSEAU         FAIR      82  72  69 CALM      29.68S
HALLOCK        FAIR      84  70  61 S14G21    29.63F
THF RVR FALLS  FAIR      85  69  58 S21G28    29.69R
HALSTAD          N/A     87  66  49 S15         N/A  HX  90
FOSSTON        FAIR      81  64  57 S18G24    29.76R
BAUDETTE       FAIR      85  68  56 S15       29.70R
WASKISH        FAIR      84  70  61 S8G18     29.74R
CROOKSTON      PTSUNNY   84  70  61 SW9       29.68R
$$
  *****  WEATHER ACROSS CENTRAL AND WEST MINNESOTA  *****

CITY           SKY/WX    TMP DP  RH WIND       PRES   REMARKS
BEMIDJI        FAIR      83  69  62 S15G23    29.78R
PARK RAPIDS    PTSUNNY   83  69  62 S21G30    29.81R
WADENA         FAIR      79  70  73 S18       29.82R
DETROIT LAKES  FAIR      81  66  61 S17G26    29.78F
MOORHEAD       FAIR      86  61  42 S20G31    29.73R
FERGUS FALLS   FAIR      81  66  61 S16G24    29.78F
ELBOW LAKE     FAIR      79  65  63 S15G24    29.81F
MORRIS MN      FAIR      81  68  65 S17       29.80F
STAPLES        FAIR      79  70  73 S14         N/A
WHEATON        FAIR      82  66  57 S12G21    29.79S
$$
  *****  WEATHER ELSEWHERE ACROSS MINNESOTA  *****

CITY           SKY/WX    TMP DP  RH WIND       PRES   REMARKS
DULUTH         FAIR      82  68  62 S17       29.89R
INTRNTL FALLS  FAIR      84  66  54 S10G20    29.74S
ELY            FAIR      82  64  54 S5        29.86S
CLOQUET        FAIR      79  66  65 S9G17     29.90R
BRAINERD       FAIR      80  69  69 S18       29.85R
HIBBING        FAIR      80  66  62 S7        29.85S
ALEXANDRIA     FAIR      79  69  71 S15G23    29.85S
SAINT CLOUD    CLOUDY    79  71  76 S17G26    29.87R
MINNEAPOLIS    CLOUDY    80  64  58 S18G25    29.91R
$$

  *****  WEATHER ACROSS SOUTH DAKOTA  *****

CITY           SKY/WX    TMP DP  RH WIND       PRES   REMARKS
SIOUX FALLS    CLOUDY    73  67  81 S10       29.82F
BROOKINGS      CLOUDY    72  66  83 S10       29.82F
WATERTOWN      FAIR      77  67  71 S14G24    29.79F
HURON          SUNNY     82  70  66 S14G23    29.74S
SISSETON         N/A     82  66  58 S18G28    29.75S
ABERDEEN       PTSUNNY   83  69  62 SE16G22   29.72R
MITCHELL       SUNNY     82  70  66 S13       29.77R
PIERRE         SUNNY     84  49  29 N23G29    29.80R
MOBRIDGE       MOSUNNY   85  40  20 N20G29    29.79R
RAPID CITY     PTSUNNY   80  32  17 N20G29    29.97R
$$

  *****  SOME WEATHER IN NEARBY STATES *****

CITY           SKY/WX    TMP DP  RH WIND       PRES   REMARKS
GLASGOW MT     MOSUNNY   71  45  39 W35G45    29.89S
GREAT FALLS MT PTSUNNY   68  37  32 N18       30.12R
CHEYENNE WY    PTSUNNY   79  22  12 NW9       30.11S
SCOTTSBLUFF NE PTSUNNY   84  36  18 N14       29.98S
OMAHA NE       TSTM      83  74  74 S26G33    29.82S
DES MOINES IA  PTSUNNY   79  72  79 S16       29.93F
DAVENPORT IA   PTSUNNY   76  66  71 S17G23    30.05F
CHICAGO IL     PTSUNNY   77  60  55 S16G23    30.13S
EAU CLAIRE WI  FAIR      79  65  62 S10G20    29.97S
LA CROSSE WI   FAIR      81  69  67 S16       29.98F
$$

  *****  SOME NATIONAL WEATHER *****

CITY           SKY/WX    TMP DP  RH WIND       PRES   REMARKS
LA GUARDIA NY  FAIR      80  56  43 SE12      30.23S
RALEIGH NC     MOCLDY    83  59  44 E7        30.24S
ATLANTA GA     PTSUNNY   90  66  45 N5        30.20S HX  92
NEW ORLEANS LA FAIR      89  74  60 E3        30.12R HX  98
OKLAHOMA CITY  PTSUNNY   89  70  53 S21G28    29.98S HX  94
ALBUQUERQUE NM MOSUNNY   81  42  25 W14G21    30.14F
SALT LAKE CITY MOSUNNY   90  28  11 N15       30.02F
LOS ANGELES CA MOSUNNY   74  62  66 SW12      30.00F
BOISE ID       SUNNY     79  23  12 NW14      30.07F
SEATTLE WA     MOSUNNY   79  50  36 NW13      30.18F
$$

*** WEATHER ACROSS MANITOBA...SASKATCHEWAN AND ONTARIO ***
                ***ONTARIO***

CITY           SKY/WX    TMP DP  RH WIND       PRES   REMARKS
GERALDTON      PTSUNNY   75  64  69 S12       29.91R
THUNDER BAY    MOSUNNY   79  66  65 S7        29.87F
SIOUX LOOKOUT  CLOUDY    79  68  69 S9G20     29.76F
TORONTO        MOSUNNY   81  59  47 SW13      30.19S
BIG TROUT LK   MOSUNNY   64  54  68 NW2       29.92F
PICKLE LAKE    PTSUNNY   70  61  73 E8        29.85F THUNDER
DRYDEN         SUNNY     81  68  65 S13       29.76F
KENORA         CLOUDY    79  68  69 SE6       29.73F
$$
                *** MANITOBA***

CITY           SKY/WX    TMP DP  RH WIND       PRES   REMARKS
BRANDON        CLOUDY    68  57  68 NW9       29.74R
DAUPHIN        PTSUNNY   68  66  94 SW6       29.72F
ISLAND LAKE    CLOUDY    64  52  63 E14G20    29.89
PILOT MOUND      N/A     75  64  69 W8          N/A
THE PAS        CLOUDY    63  54  72 NE6       29.81S
THOMPSON       CLOUDY    68  46  45 E7        29.94S
WINNIPEG       LGT RAIN  75  68  78 NE10      29.63F
LYNN LAKE      PTSUNNY   66  45  45 MISG      29.98F
CHURCHILL      MOSUNNY   57  50  77 N13G20    29.96S
GILLAM         PTSUNNY   70  50  49 W2        29.94F
$$
                ***SASKATCHEWAN***

CITY           SKY/WX    TMP DP  RH WIND       PRES   REMARKS
ESTEVAN        PTSUNNY   75  45  33 W12G17    29.79F
KINDERSLEY     LGT RAIN  55  54  94 NW17G28   29.85R
LLOYDMINSTER   LGT RAIN  57  54  88 N17G26    29.96R
PRINCE ALBERT  CLOUDY    59  54  82 N13G18    29.76F
REGINA         PTSUNNY   64  46  52 W14G23    29.77R
YORKTON        MOSUNNY   68  52  56 SW5       29.75F   C1F1C2F2C3F3C4F4C5F5C6F6C7F7C8F8C9F9CaFaCbFbCcFcCdFdCe!


USA.gov is the U.S. government's official web portal to all federal, state and local government web resources and services.